|  Orbital Elements
Epoch 2020 Apr. 21.0 TT = JDT 2458960.5
T 2020 Apr. 26.88954 TT                                 Rudenko
q   1.6475227            (2000.0)            P               Q
n   0.16307524     Peri.  183.85529     -0.99734513     +0.07274098
a   3.3180076      Node     0.37086     -0.04453547     -0.57254612
e   0.5034602      Incl.   31.51279     -0.05761326     -0.81663927
P   6.04
From 2831 observations 1991 Mar. 15-2020 July 18, mean residual 0".8.
 
 |